Date String (YYYY-MM-DD hh:mm:ss) UTC,Instrument flags,Ambient pressure (hPa),Sample flow (lpm),Bypass flow (lpm),Sample temperature (°C),Ambient temperature (°C),ASC tube jacket temperature (°C),LED temperature (°C),Box temperature (°C),Sample RH (%),Span deviation,Mass concentration (μg/m³),Mass concentration (μg/m³),Mass concentration (μg/m³)
DateTimeUTC,F1_M11,P_M11,Q1_M11,Q2_M11,T1_M11,T2_M11,T3_M11,T4_M11,T5_M11,U1_M11,ZSPAN_M11,X0_M11,X2_M11,X1_M11
2021-09-04 12:00:00,,0830.7,4.99,0.00,30.0,29.2,00.0,39.1,31.8,25.4,0001.2,0014.53,0010.05,0009.67
2021-09-04 12:01:00,,0830.7,4.99,0.00,30.0,29.2,00.0,39.1,31.7,25.4,0001.2,0014.80,0010.07,0009.70
2021-09-04 12:02:00,,0830.8,5.01,0.00,30.0,29.2,00.0,39.1,31.7,25.3,0001.2,0014.77,0010.12,0009.72
2021-09-04 12:03:00,,0830.7,5.00,0.00,30.0,29.2,00.0,39.1,31.7,25.5,0001.2,0014.45,0010.11,0009.73
2021-09-04 12:04:00,,0830.8,4.99,0.00,30.0,29.2,00.0,39.1,31.8,25.7,0001.1,0014.51,0010.13,0009.73
2021-09-04 12:05:00,,0830.8,5.00,0.00,30.0,29.2,00.0,39.1,31.8,26.1,0000.9,0014.67,0010.17,0009.73
2021-09-04 12:06:00,,0830.9,4.99,0.00,30.0,29.2,00.0,39.1,31.8,26.1,0001.0,0014.36,0010.19,0009.72
2021-09-04 12:07:00,,0830.9,5.01,0.00,30.0,29.2,00.0,39.1,31.7,26.2,0001.0,0013.38,0010.18,0009.72
2021-09-04 12:08:00,,0830.9,5.01,0.00,30.0,29.3,00.0,39.1,31.8,26.3,0000.9,0013.38,0010.16,0009.71
2021-09-04 12:09:00,,0830.9,4.99,0.00,30.0,29.3,00.0,39.2,31.7,26.5,0000.8,0013.43,0010.15,0009.69
2021-09-04 12:10:00,,0830.9,5.01,0.00,30.0,29.3,00.0,39.2,31.7,25.9,0000.8,0014.36,0010.17,0009.68
2021-09-04 12:11:00,,0830.9,5.00,0.00,30.1,29.3,00.0,39.2,31.8,25.9,0000.8,0014.40,0010.16,0009.67
2021-09-04 12:12:00,,0830.9,5.00,0.00,30.1,29.3,00.0,39.2,31.8,26.6,0000.9,0014.02,0010.12,0009.63
2021-09-04 12:13:00,,0830.9,5.01,0.00,30.1,29.3,00.0,39.2,31.9,26.4,0001.0,0013.72,0010.06,0009.59
2021-09-04 12:14:00,,0831.0,4.99,0.00,30.1,29.3,00.0,39.2,31.9,26.4,0000.9,0013.72,0010.04,0009.56
2021-09-04 12:15:00,,0830.9,5.00,0.00,30.1,29.3,00.0,39.2,31.9,25.7,0000.9,0013.61,0010.01,0009.54
2021-09-04 12:16:00,,0830.9,5.01,0.00,30.1,29.3,00.0,39.2,31.9,26.0,0001.0,0013.75,0009.98,0009.53
2021-09-04 12:17:00,,0830.9,5.01,0.00,30.1,29.3,00.0,39.2,31.9,26.6,0001.1,0013.74,0009.94,0009.53
2021-09-04 12:18:00,,0830.9,4.99,0.00,30.1,29.3,00.0,39.2,31.9,27.3,0001.0,0013.74,0009.90,0009.48
2021-09-04 12:19:00,,0830.9,4.99,0.00,30.1,29.3,00.0,39.2,31.9,27.6,0000.9,0013.79,0009.88,0009.44
2021-09-04 12:20:00,,0830.9,5.01,0.00,30.1,29.3,00.0,39.2,31.9,27.9,0001.0,0013.74,0009.85,0009.43
2021-09-04 12:21:00,,0830.8,5.01,0.00,30.1,29.3,00.0,39.3,31.9,28.1,0000.8,0012.83,0009.78,0009.38
2021-09-04 12:22:00,,0830.9,4.99,0.00,30.1,29.3,00.0,39.3,31.9,27.6,0000.5,0012.78,0009.78,0009.36
2021-09-04 12:23:00,,0830.9,5.01,0.00,30.1,29.3,00.0,39.3,31.9,27.0,0000.4,0012.83,0009.79,0009.35
2021-09-04 12:24:00,,0830.8,5.00,0.00,30.1,29.3,00.0,39.3,31.9,27.0,0000.1,0012.92,0009.81,0009.36
2021-09-04 12:25:00,,0830.8,4.99,0.00,30.1,29.3,00.0,39.3,31.9,27.4,0000.2,0012.95,0009.80,0009.35
2021-09-04 12:26:00,,0830.8,4.99,0.00,30.2,29.3,00.0,39.3,31.9,26.8,0000.4,0013.07,0009.82,0009.35
2021-09-04 12:27:00,,0830.8,5.01,0.00,30.2,29.3,00.0,39.3,31.9,26.4,0000.4,0012.84,0009.82,0009.35
2021-09-04 12:28:00,,0830.7,5.00,0.00,30.2,29.4,00.0,39.3,31.9,26.5,0000.3,0013.01,0009.82,0009.35
2021-09-04 12:29:00,,0830.8,5.00,0.00,30.2,29.4,00.0,39.3,31.9,27.4,0000.4,0013.19,0009.81,0009.36
2021-09-04 12:30:00,,0830.7,5.00,0.00,30.2,29.4,00.0,39.3,31.9,26.6,0000.5,0013.15,0009.81,0009.37
2021-09-04 12:31:00,,0830.8,5.01,0.00,30.2,29.3,00.0,39.3,31.9,27.3,0000.3,0013.18,0009.79,0009.37
2021-09-04 12:32:00,,0830.8,5.01,0.00,30.2,29.3,00.0,39.3,31.9,27.5,0000.4,0013.24,0009.82,0009.38
2021-09-04 12:33:00,,0830.8,4.98,0.00,30.2,29.3,00.0,39.3,31.9,27.8,0000.6,0013.44,0009.83,0009.39
2021-09-04 12:34:00,,0830.8,5.01,0.00,30.1,29.3,00.0,39.3,31.9,28.0,0000.6,0013.39,0009.81,0009.38
2021-09-04 12:35:00,,0830.8,5.00,0.00,30.1,29.3,00.0,39.3,31.9,27.7,0000.6,0013.38,0009.81,0009.37
2021-09-04 12:36:00,,0830.8,5.00,0.00,30.1,29.2,00.0,39.3,31.9,27.7,0000.6,0013.48,0009.78,0009.35
2021-09-04 12:37:00,,0830.9,4.99,0.00,30.1,29.2,00.0,39.3,31.9,27.7,0000.5,0013.59,0009.75,0009.32
2021-09-04 12:38:00,,0831.0,5.01,0.00,30.1,29.2,00.0,39.3,31.9,28.0,0000.6,0013.54,0009.73,0009.31
2021-09-04 12:39:00,,0830.9,4.99,0.00,30.1,29.2,00.0,39.3,31.9,27.9,0000.4,0013.51,0009.72,0009.30
2021-09-04 12:40:00,,0830.9,4.99,0.00,30.1,29.2,00.0,39.3,31.9,27.6,0000.3,0013.23,0009.77,0009.30
2021-09-04 12:41:00,,0830.9,5.01,0.00,30.1,29.2,00.0,39.3,31.9,27.7,0000.3,0013.12,0009.74,0009.29
2021-09-04 12:42:00,,0830.9,4.99,0.00,30.1,29.2,00.0,39.3,31.8,27.6,0000.5,0013.14,0009.75,0009.28
2021-09-04 12:43:00,,0830.9,5.00,0.00,30.0,29.2,00.0,39.3,31.8,27.6,0000.4,0013.29,0009.75,0009.27
2021-09-04 12:44:00,,0830.9,5.00,0.00,30.0,29.2,00.0,39.3,31.8,27.5,0000.2,0013.09,0009.74,0009.26
2021-09-04 12:45:00,,0830.9,5.00,0.00,30.0,29.2,00.0,39.2,31.8,27.6,0000.2,0013.23,0009.77,0009.27
2021-09-04 12:46:00,,0831.0,4.99,0.00,30.0,29.2,00.0,39.2,31.8,27.8,0000.3,0013.25,0009.78,0009.27
2021-09-04 12:47:00,,0831.0,4.99,0.00,30.0,29.2,00.0,39.2,31.8,27.8,0000.3,0013.15,0009.81,0009.29
2021-09-04 12:48:00,,0831.0,5.01,0.00,30.1,29.2,00.0,39.2,31.8,27.7,0000.3,0013.10,0009.86,0009.31
2021-09-04 12:49:00,,0831.0,4.99,0.00,30.1,29.3,00.0,39.2,31.8,27.6,0000.1,0013.19,0009.93,0009.34
2021-09-04 12:50:00,,0831.0,5.00,0.00,30.1,29.3,00.0,39.2,31.8,27.6,0000.4,0013.14,0009.95,0009.35
2021-09-04 12:51:00,,0831.1,5.00,0.00,30.1,29.3,00.0,39.2,31.8,27.3,0000.6,0013.14,0009.96,0009.36
2021-09-04 12:52:00,,0831.1,5.00,0.00,30.1,29.3,00.0,39.2,31.8,27.3,0000.7,0013.25,0010.01,0009.39
2021-09-04 12:53:00,,0831.0,4.99,0.00,30.1,29.3,00.0,39.2,31.9,27.2,0000.8,0013.20,0010.01,0009.41
2021-09-04 12:54:00,,0831.1,4.99,0.00,30.1,29.3,00.0,39.2,31.9,27.4,0001.0,0013.10,0010.00,0009.41
2021-09-04 12:55:00,,0831.0,5.00,0.00,30.1,29.2,00.0,39.2,31.8,27.3,0001.3,0013.07,0010.00,0009.41
2021-09-04 12:56:00,,0831.0,5.01,0.00,30.0,29.2,00.0,39.2,31.8,27.6,0001.4,0012.99,0010.00,0009.42
2021-09-04 12:57:00,,0831.0,5.01,0.00,30.0,29.2,00.0,39.2,31.7,27.5,0001.4,0012.93,0009.99,0009.43
2021-09-04 12:58:00,,0831.0,5.00,0.00,30.0,29.1,00.0,39.2,31.7,27.7,0001.6,0012.84,0009.96,0009.43
2021-09-04 12:59:00,,0831.0,5.01,0.00,30.0,29.1,00.0,39.2,31.7,27.7,0001.6,0012.73,0009.94,0009.44
